Regional Weather Roundup
Issued by NWS

Home | Current Version | Previous Version | Text Only | Print | Product List | Glossary On
Versions: 1 2 3 4 5 6 7 8 9 10 11 12 13 14 15 16 17 18 19 20 21 22 23 24 25 26 27 28 29 30 31 32 33 34 35 36 37 38 39 40 41 42 43 44 45 46 47 48 49 50
000
ASUS43 KMKX 192310
RWRWI

WISCONSIN REGIONAL WEATHER ROUNDUP
NATIONAL WEATHER SERVICE MILWAUKEE/SULLIVAN WI
500 PM CST FRI JAN 19 2018

NOTE: "FAIR" INDICATES FEW OR NO CLOUDS BELOW 12,000 FEET WITH NO
SIGNIFICANT WEATHER AND/OR OBSTRUCTIONS TO VISIBILITY.

WIZ001-002-006>008-014>016-023>028-200000-
NORTHWEST WISCONSIN

CITY           SKY/WX    TMP DP  RH WIND       PRES   REMARKS
SUPERIOR ARPT  FAIR      40  28  64 SW9       29.45R WCI  33
ASHLAND        FAIR      41  25  53 W9        29.45R
HAYWARD        FAIR      35  24  64 SW5       29.47R WCI  31
SIREN          FAIR      38  27  62 SW5       29.51R WCI  35
CUMBERLAND     FAIR      34  25  69 SW7       29.50R WCI  28
RICE LAKE      FAIR      36  27  68 SW3       29.52R
CHETEK         FAIR      37  27  65 W3        29.52R
LADYSMITH      FAIR      37  26  64 SW5       29.51R WCI  33
EAU CLAIRE     FAIR      39  28  64 SW8       29.52R WCI  33
MENOMONIE      FAIR      39  29  67 SW6       29.53R WCI  34
NEW RICHMOND   FAIR      36  26  68 SW6       29.53R WCI  31
OSCEOLA        FAIR      36  28  72 SW6       29.55R WCI  31
$$

WIZ003>005-009-010-017-018-200000-
NORTH CENTRAL WISCONSIN

CITY           SKY/WX    TMP DP  RH WIND       PRES   REMARKS
MANITOWISH WTR FAIR      37  23  58 SW7       29.42S WCI  31
ARBOR VITAE    FAIR      37  28  70 SW6       29.43F WCI  32
WOODRUFF       FAIR      37  28  70 SW6       29.43F WCI  32
RHINELANDER    FAIR      36  26  67 SW8       29.45R WCI  30
EAGLE RIVER    FAIR      32  26  76 SW6       29.43R WCI  27
LAND O LAKES   FAIR      35  25  68 CALM      29.43R
PHILLIPS       FAIR      37  25  64 SW6       29.46R WCI  32
TOMAHAWK       FAIR      37  25  62 CALM      29.48S
MEDFORD        FAIR      34  24  68 SW7       29.49R WCI  28
MERRILL        FAIR      36  26  67 W6        29.51R WCI  31
$$

WIZ029-030-035-036-043>047-200000-
CENTRAL WISCONSIN

CITY           SKY/WX    TMP DP  RH WIND       PRES   REMARKS
WAUSAU         FAIR      36  25  64 SW5       29.49R WCI  32
MOSINEE        PTCLDY    34  27  75 SW8       29.52R WCI  27
MARSHFIELD     FAIR      38  25  59 W12       29.50R WCI  30
STEVENS POINT  FAIR      36  25  63 SW10      29.51S WCI  28
WAUPACA        FAIR      39  27  60 S9        29.53R WCI  33
WAUTOMA        FAIR      38  25  59 SW6       29.55R WCI  33
WISC RAPIDS    FAIR      36  24  62 SW9       29.53R WCI  29
CAMP DOUGLAS   FAIR      41  26  53 SW10G22   29.54R
$$

WIZ011>013-019>022-031-037>040-048>050-200000-
NORTHEAST WISCONSIN

CITY           SKY/WX    TMP DP  RH WIND       PRES   REMARKS
ANTIGO         FAIR      33  25  71 SW9       29.49R WCI  25
SHAWANO        FAIR      38  27  62 SW6       29.50R WCI  34
OCONTO         FAIR      35  26  71 SW6       29.50S WCI  30
STURGEON BAY   FAIR      34  28  79 S10       29.50F WCI  26
GREEN BAY      FAIR      36  26  67 S12G23    29.51F WCI  28
MANITOWOC      FAIR      35  28  75 S12       29.54F WCI  27
APPLETON       MOCLDY    36  25  64 SW18      29.49F WCI  25
CLINTONVILLE   FAIR      36  27  69 SW7       29.51R WCI  30
OSHKOSH        FAIR      36  27  69 S17G24    29.53F WCI  26
$$

WIZ032>034-041-042-053>061-200000-
SOUTHWEST WISCONSIN

CITY           SKY/WX    TMP DP  RH WIND       PRES   REMARKS
LA CROSSE      FAIR      41  29  62 S12       29.57R
SPARTA         FAIR      41  28  58 SW6       29.56S
VIROQUA        FAIR      38  30  72 SW13      29.56S WCI  31
BOSCOBEL       FAIR      42  28  57 SW10      29.61F
PRAIRIE DU CHI FAIR      42  26  53 S7        29.62R
PLATTEVILLE    FAIR      37  31  79 S15       29.65S WCI  28
$$

WIZ056-057-062-063-064-067-068-200000-
SOUTH CENTRAL WISCONSIN

CITY           SKY/WX    TMP DP  RH WIND       PRES   REMARKS
REEDSBURG      FAIR      39  27  60 SW8       29.57S WCI  34
BARABOO/DELLS  FAIR      39  25  57 SW12G18   29.56R WCI  32
LONE ROCK      FAIR      40  28  62 SW8       29.62S WCI  34
MINERAL POINT  FAIR      37  32  81 S16G26    29.62F WCI  28
MADISON        MOCLDY    37  27  67 S14G23    29.62S WCI  28
MIDDLETON      FAIR      40  27  61 SW17      29.61S WCI  31
WATERTOWN      FAIR      36  28  72 SW16G23   29.61F WCI  27
MONROE         FAIR      36  28  75 S23G30    29.64F WCI  24
JANESVILLE     MOCLDY    39  28  65 SW17      29.67F WCI  30
$$

WIZ051-052-058>065-066-070>072-200000-
SOUTHEAST WISCONSIN

CITY           SKY/WX    TMP DP  RH WIND       PRES   REMARKS
MILWAUKEE      CLOUDY    39  27  62 SW21G31   29.64F WCI  29
WAUKESHA       CLEAR     36  25  64 SW14G21   29.64F WCI  27
MILWAUKEE/TIMM CLEAR     37  25  60 SW10      29.64F WCI  30
RACINE         FAIR      39  25  57 SW13      29.67F WCI  31
BURLINGTON     FAIR      35  27  72 S18G26    29.67S WCI  25
KENOSHA        FAIR      39  25  57 SW16G28   29.67F WCI  30
FOND DU LAC    FAIR      37  25  61 S20G28    29.55F WCI  27
SHEBOYGAN      FAIR      38  27  64 SW20G26   29.57F WCI  28
WEST BEND      FAIR      36  27  69 SW16      29.58F WCI  26
JUNEAU         FAIR      35  26  71 S20G25    29.60F WCI  24
$$

LSZ147-162-200000-
LAKE SUPERIOR

STATION/POSITION TIME  TEMP    WIND        PRES    WAVE
                       AIR SEA DIR/SP/G            HT/PER
                 (UTC) (F)     (DEG/KT/KT) (MB)    (FT/S)
DEVILS ISLAND    2300   36     220/ 12/ 15  996.0R
SAXON HARBOR     2230   45     210/  8/ 14  995.9S
$$

LMZ867-665-643>646-200000-
LAKE MICHIGAN

STATION/POSITION TIME  TEMP    WIND        PRES    WAVE
                       AIR SEA DIR/SP/G            HT/PER
                 (UTC) (F)     (DEG/KT/KT) (MB)    (FT/S)
NORTHPORT PIER   2240   35     160/  5/ 20  998.6F
KEWAUNEE LAKESHO 2248                       999.1F
SHEBOYGAN LAKESH 2300   37     190/ 16/ 17 1001.7F
PORT WASHINGTON  2230   41     210/  9/ 14 1004.1S
MILWAUKEE LAKESH 2250   39     220/ 17/ 20   N/A
KENOSHA   LAKESH 2300   40     210/ 11/ 21 1005.4
$$

TC  - TEMPERATURE IN CELSIUS
VSB - VISIBILITY IN STATUTE MILES
WCI - WIND CHILL INDEX
HX  - HEAT INDEX





USA.gov is the U.S. government's official web portal to all federal, state and local government web resources and services.